owner,sensor,date,latitude,longitude,vertical_datum,sea_water_temperature,qcFlag 
NERRS,ioos:station:NOAA.NERRS:gndbcwq:1,2017-02-01T00:30:00Z,30.3836,-88.4364,0.0,17.9,2 
NERRS,ioos:station:NOAA.NERRS:gndbcwq:1,2017-02-01T14:45:00Z,30.3836,-88.4364,0.0,16.7,2 
NERRS,ioos:station:NOAA.NERRS:gndbcwq:1,2017-02-01T15:45:00Z,30.3836,-88.4364,0.0,16.6,2 
NERRS,ioos:station:NOAA.NERRS:gndbcwq:1,2017-02-01T16:45:00Z,30.3836,-88.4364,0.0,17.0,2 
NERRS,ioos:station:NOAA.NERRS:gndbcwq:1,2017-02-01T17:45:00Z,30.3836,-88.4364,0.0,17.5,2 
NERRS,ioos:station:NOAA.NERRS:gndbcwq:1,2017-02-01T18:45:00Z,30.3836,-88.4364,0.0,17.6,2 
NERRS,ioos:station:NOAA.NERRS:gndbcwq:1,2017-02-01T19:45:00Z,30.3836,-88.4364,0.0,18.8,2 
NERRS,ioos:station:NOAA.NERRS:gndbcwq:1,2017-02-01T20:45:00Z,30.3836,-88.4364,0.0,19.0,2 
NERRS,ioos:station:NOAA.NERRS:gndbcwq:1,2017-02-01T21:45:00Z,30.3836,-88.4364,0.0,19.1,2 
NERRS,ioos:station:NOAA.NERRS:gndbcwq:1,2017-02-01T22:45:00Z,30.3836,-88.4364,0.0,19.1,2 
NERRS,ioos:station:NOAA.NERRS:gndbcwq:1,2017-02-01T23:45:00Z,30.3836,-88.4364,0.0,19.1,2 
NERRS,ioos:station:NOAA.NERRS:gndbcwq:1,2017-02-02T00:15:00Z,30.3836,-88.4364,0.0,19.3,2 
NERRS,ioos:station:NOAA.NERRS:gndbcwq:1,2017-02-02T14:45:00Z,30.3836,-88.4364,0.0,18.3,2 
NERRS,ioos:station:NOAA.NERRS:gndbcwq:1,2017-02-02T15:45:00Z,30.3836,-88.4364,0.0,18.5,2 
NERRS,ioos:station:NOAA.NERRS:gndbcwq:1,2017-02-02T16:45:00Z,30.3836,-88.4364,0.0,18.7,2 
NERRS,ioos:station:NOAA.NERRS:gndbcwq:1,2017-02-02T17:45:00Z,30.3836,-88.4364,0.0,18.9,2 
NERRS,ioos:station:NOAA.NERRS:gndbcwq:1,2017-02-02T18:45:00Z,30.3836,-88.4364,0.0,19.2,2 
NERRS,ioos:station:NOAA.NERRS:gndbcwq:1,2017-02-02T19:45:00Z,30.3836,-88.4364,0.0,21.2,2 
NERRS,ioos:station:NOAA.NERRS:gndbcwq:1,2017-02-02T20:45:00Z,30.3836,-88.4364,0.0,21.0,2 
NERRS,ioos:station:NOAA.NERRS:gndbcwq:1,2017-02-02T21:45:00Z,30.3836,-88.4364,0.0,21.2,2 
NERRS,ioos:station:NOAA.NERRS:gndbcwq:1,2017-02-02T22:45:00Z,30.3836,-88.4364,0.0,21.1,2 
NERRS,ioos:station:NOAA.NERRS:gndbcwq:1,2017-02-02T23:30:00Z,30.3836,-88.4364,0.0,21.1,2 
NERRS,ioos:station:NOAA.NERRS:gndbcwq:1,2017-02-03T17:45:00Z,30.3836,-88.4364,0.0,19.8,2 
NERRS,ioos:station:NOAA.NERRS:gndbcwq:1,2017-02-03T18:45:00Z,30.3836,-88.4364,0.0,20.2,2 
NERRS,ioos:station:NOAA.NERRS:gndbcwq:1,2017-02-03T19:45:00Z,30.3836,-88.4364,0.0,20.6,2 
NERRS,ioos:station:NOAA.NERRS:gndbcwq:1,2017-02-03T20:45:00Z,30.3836,-88.4364,0.0,19.6,2 
NERRS,ioos:station:NOAA.NERRS:gndbcwq:1,2017-02-03T21:45:00Z,30.3836,-88.4364,0.0,20.2,2 
NERRS,ioos:station:NOAA.NERRS:gndbcwq:1,2017-02-03T23:00:00Z,30.3836,-88.4364,0.0,20.0,2 
NERRS,ioos:station:NOAA.NERRS:gndbcwq:1,2017-02-04T14:45:00Z,30.3836,-88.4364,0.0,16.6,2 
NERRS,ioos:station:NOAA.NERRS:gndbcwq:1,2017-02-04T15:45:00Z,30.3836,-88.4364,0.0,15.1,2 
NERRS,ioos:station:NOAA.NERRS:gndbcwq:1,2017-02-04T16:45:00Z,30.3836,-88.4364,0.0,15.6,2 
NERRS,ioos:station:NOAA.NERRS:gndbcwq:1,2017-02-04T17:45:00Z,30.3836,-88.4364,0.0,16.1,2 
NERRS,ioos:station:NOAA.NERRS:gndbcwq:1,2017-02-04T18:45:00Z,30.3836,-88.4364,0.0,16.5,2 
NERRS,ioos:station:NOAA.NERRS:gndbcwq:1,2017-02-04T19:45:00Z,30.3836,-88.4364,0.0,16.6,2 
NERRS,ioos:station:NOAA.NERRS:gndbcwq:1,2017-02-04T20:45:00Z,30.3836,-88.4364,0.0,16.7,2 
NERRS,ioos:station:NOAA.NERRS:gndbcwq:1,2017-02-04T21:45:00Z,30.3836,-88.4364,0.0,17.4,2 
NERRS,ioos:station:NOAA.NERRS:gndbcwq:1,2017-02-04T22:45:00Z,30.3836,-88.4364,0.0,17.4,2 
NERRS,ioos:station:NOAA.NERRS:gndbcwq:1,2017-02-04T23:15:00Z,30.3836,-88.4364,0.0,17.4,2 
NERRS,ioos:station:NOAA.NERRS:gndbcwq:1,2017-02-05T14:45:00Z,30.3836,-88.4364,0.0,15.9,2 
NERRS,ioos:station:NOAA.NERRS:gndbcwq:1,2017-02-05T15:45:00Z,30.3836,-88.4364,0.0,15.8,2 
NERRS,ioos:station:NOAA.NERRS:gndbcwq:1,2017-02-05T16:45:00Z,30.3836,-88.4364,0.0,15.2,2 
NERRS,ioos:station:NOAA.NERRS:gndbcwq:1,2017-02-05T17:45:00Z,30.3836,-88.4364,0.0,15.9,2 
NERRS,ioos:station:NOAA.NERRS:gndbcwq:1,2017-02-05T18:45:00Z,30.3836,-88.4364,0.0,16.4,2 
NERRS,ioos:station:NOAA.NERRS:gndbcwq:1,2017-02-05T19:45:00Z,30.3836,-88.4364,0.0,16.9,2 
NERRS,ioos:station:NOAA.NERRS:gndbcwq:1,2017-02-05T20:45:00Z,30.3836,-88.4364,0.0,17.3,2 
NERRS,ioos:station:NOAA.NERRS:gndbcwq:1,2017-02-05T21:45:00Z,30.3836,-88.4364,0.0,17.3,2 
NERRS,ioos:station:NOAA.NERRS:gndbcwq:1,2017-02-05T22:45:00Z,30.3836,-88.4364,0.0,17.7,2 
NERRS,ioos:station:NOAA.NERRS:gndbcwq:1,2017-02-06T14:45:00Z,30.3836,-88.4364,0.0,16.6,2 
NERRS,ioos:station:NOAA.NERRS:gndbcwq:1,2017-02-06T15:45:00Z,30.3836,-88.4364,0.0,16.9,2 
NERRS,ioos:station:NOAA.NERRS:gndbcwq:1,2017-02-06T16:45:00Z,30.3836,-88.4364,0.0,17.5,2 
NERRS,ioos:station:NOAA.NERRS:gndbcwq:1,2017-02-06T17:45:00Z,30.3836,-88.4364,0.0,17.9,2 
NERRS,ioos:station:NOAA.NERRS:gndbcwq:1,2017-02-06T18:45:00Z,30.3836,-88.4364,0.0,18.6,2 
NERRS,ioos:station:NOAA.NERRS:gndbcwq:1,2017-02-06T19:45:00Z,30.3836,-88.4364,0.0,18.6,2 
NERRS,ioos:station:NOAA.NERRS:gndbcwq:1,2017-02-06T20:45:00Z,30.3836,-88.4364,0.0,19.0,2 
NERRS,ioos:station:NOAA.NERRS:gndbcwq:1,2017-02-06T21:45:00Z,30.3836,-88.4364,0.0,18.8,2 
NERRS,ioos:station:NOAA.NERRS:gndbcwq:1,2017-02-06T22:45:00Z,30.3836,-88.4364,0.0,18.5,2 
NERRS,ioos:station:NOAA.NERRS:gndbcwq:1,2017-02-07T15:45:00Z,30.3836,-88.4364,0.0,18.4,2 
NERRS,ioos:station:NOAA.NERRS:gndbcwq:1,2017-02-07T16:45:00Z,30.3836,-88.4364,0.0,18.5,2 
NERRS,ioos:station:NOAA.NERRS:gndbcwq:1,2017-02-07T17:00:00Z,30.3836,-88.4364,0.0,18.5,2 
NERRS,ioos:station:NOAA.NERRS:gndbcwq:1,2017-02-08T17:45:00Z,30.3836,-88.4364,0.0,18.6,2 
NERRS,ioos:station:NOAA.NERRS:gndbcwq:1,2017-02-08T18:45:00Z,30.3836,-88.4364,0.0,19.2,2 
NERRS,ioos:station:NOAA.NERRS:gndbcwq:1,2017-02-08T19:45:00Z,30.3836,-88.4364,0.0,19.5,2 
NERRS,ioos:station:NOAA.NERRS:gndbcwq:1,2017-02-08T20:45:00Z,30.3836,-88.4364,0.0,19.6,2 
NERRS,ioos:station:NOAA.NERRS:gndbcwq:1,2017-02-08T21:45:00Z,30.3836,-88.4364,0.0,19.9,2 
NERRS,ioos:station:NOAA.NERRS:gndbcwq:1,2017-02-08T22:45:00Z,30.3836,-88.4364,0.0,19.8,2 
NERRS,ioos:station:NOAA.NERRS:gndbcwq:1,2017-02-08T23:30:00Z,30.3836,-88.4364,0.0,19.6,2 
NERRS,ioos:station:NOAA.NERRS:gndbcwq:1,2017-02-16T15:45:00Z,30.3836,-88.4364,0.0,17.7,2 
NERRS,ioos:station:NOAA.NERRS:gndbcwq:1,2017-02-16T16:45:00Z,30.3836,-88.4364,0.0,18.2,2 
NERRS,ioos:station:NOAA.NERRS:gndbcwq:1,2017-02-16T17:45:00Z,30.3836,-88.4364,0.0,18.0,2 
NERRS,ioos:station:NOAA.NERRS:gndbcwq:1,2017-02-16T18:45:00Z,30.3836,-88.4364,0.0,17.8,2 
NERRS,ioos:station:NOAA.NERRS:gndbcwq:1,2017-02-16T19:45:00Z,30.3836,-88.4364,0.0,19.2,2 
NERRS,ioos:station:NOAA.NERRS:gndbcwq:1,2017-02-16T21:45:00Z,30.3836,-88.4364,0.0,19.6,2 
NERRS,ioos:station:NOAA.NERRS:gndbcwq:1,2017-02-16T22:30:00Z,30.3836,-88.4364,0.0,19.8,2 
NERRS,ioos:station:NOAA.NERRS:gndbcwq:1,2017-02-17T16:45:00Z,30.3836,-88.4364,0.0,17.4,2 
NERRS,ioos:station:NOAA.NERRS:gndbcwq:1,2017-02-17T17:30:00Z,30.3836,-88.4364,0.0,17.4,2 
NERRS,ioos:station:NOAA.NERRS:gndbcwq:1,2017-02-17T18:45:00Z,30.3836,-88.4364,0.0,17.5,2 
NERRS,ioos:station:NOAA.NERRS:gndbcwq:1,2017-02-17T19:45:00Z,30.3836,-88.4364,0.0,17.7,2 
NERRS,ioos:station:NOAA.NERRS:gndbcwq:1,2017-02-18T14:45:00Z,30.3836,-88.4364,0.0,16.8,2 
NERRS,ioos:station:NOAA.NERRS:gndbcwq:1,2017-02-18T15:45:00Z,30.3836,-88.4364,0.0,17.0,2 
NERRS,ioos:station:NOAA.NERRS:gndbcwq:1,2017-02-18T16:45:00Z,30.3836,-88.4364,0.0,17.2,2 
NERRS,ioos:station:NOAA.NERRS:gndbcwq:1,2017-02-18T17:45:00Z,30.3836,-88.4364,0.0,17.2,2 
NERRS,ioos:station:NOAA.NERRS:gndbcwq:1,2017-02-18T18:45:00Z,30.3836,-88.4364,0.0,18.6,2 
NERRS,ioos:station:NOAA.NERRS:gndbcwq:1,2017-02-18T19:45:00Z,30.3836,-88.4364,0.0,18.1,2 
NERRS,ioos:station:NOAA.NERRS:gndbcwq:1,2017-02-18T20:45:00Z,30.3836,-88.4364,0.0,18.8,2 
NERRS,ioos:station:NOAA.NERRS:gndbcwq:1,2017-02-18T21:45:00Z,30.3836,-88.4364,0.0,19.7,2 
NERRS,ioos:station:NOAA.NERRS:gndbcwq:1,2017-02-18T22:45:00Z,30.3836,-88.4364,0.0,18.8,2 
NERRS,ioos:station:NOAA.NERRS:gndbcwq:1,2017-02-18T23:00:00Z,30.3836,-88.4364,0.0,18.9,2 
NERRS,ioos:station:NOAA.NERRS:gndbcwq:1,2017-02-19T13:45:00Z,30.3836,-88.4364,0.0,18.7,2 
NERRS,ioos:station:NOAA.NERRS:gndbcwq:1,2017-02-19T14:45:00Z,30.3836,-88.4364,0.0,18.7,2 
NERRS,ioos:station:NOAA.NERRS:gndbcwq:1,2017-02-19T15:45:00Z,30.3836,-88.4364,0.0,18.8,2 
NERRS,ioos:station:NOAA.NERRS:gndbcwq:1,2017-02-19T16:45:00Z,30.3836,-88.4364,0.0,19.0,2 
NERRS,ioos:station:NOAA.NERRS:gndbcwq:1,2017-02-19T17:45:00Z,30.3836,-88.4364,0.0,19.2,2 
NERRS,ioos:station:NOAA.NERRS:gndbcwq:1,2017-02-19T18:45:00Z,30.3836,-88.4364,0.0,19.3,2 
NERRS,ioos:station:NOAA.NERRS:gndbcwq:1,2017-02-19T19:45:00Z,30.3836,-88.4364,0.0,19.9,2 
NERRS,ioos:station:NOAA.NERRS:gndbcwq:1,2017-02-19T20:45:00Z,30.3836,-88.4364,0.0,19.6,2 
NERRS,ioos:station:NOAA.NERRS:gndbcwq:1,2017-02-19T21:45:00Z,30.3836,-88.4364,0.0,21.4,2 
NERRS,ioos:station:NOAA.NERRS:gndbcwq:1,2017-02-19T22:15:00Z,30.3836,-88.4364,0.0,21.0,2 
NERRS,ioos:station:NOAA.NERRS:gndbcwq:1,2017-02-20T15:45:00Z,30.3836,-88.4364,0.0,20.0,2 
NERRS,ioos:station:NOAA.NERRS:gndbcwq:1,2017-02-20T16:45:00Z,30.3836,-88.4364,0.0,20.2,2 
NERRS,ioos:station:NOAA.NERRS:gndbcwq:1,2017-02-20T17:45:00Z,30.3836,-88.4364,0.0,20.2,2 
NERRS,ioos:station:NOAA.NERRS:gndbcwq:1,2017-02-20T18:45:00Z,30.3836,-88.4364,0.0,20.5,2 
NERRS,ioos:station:NOAA.NERRS:gndbcwq:1,2017-02-20T19:45:00Z,30.3836,-88.4364,0.0,20.7,2 
NERRS,ioos:station:NOAA.NERRS:gndbcwq:1,2017-02-20T20:45:00Z,30.3836,-88.4364,0.0,20.6,2 
NERRS,ioos:station:NOAA.NERRS:gndbcwq:1,2017-02-20T21:45:00Z,30.3836,-88.4364,0.0,20.9,2 
NERRS,ioos:station:NOAA.NERRS:gndbcwq:1,2017-02-20T22:45:00Z,30.3836,-88.4364,0.0,21.4,2 
NERRS,ioos:station:NOAA.NERRS:gndbcwq:1,2017-02-21T20:45:00Z,30.3836,-88.4364,0.0,20.3,2 
NERRS,ioos:station:NOAA.NERRS:gndbcwq:1,2017-02-21T21:30:00Z,30.3836,-88.4364,0.0,20.3,2 
NERRS,ioos:station:NOAA.NERRS:gndbcwq:1,2017-02-22T14:45:00Z,30.3836,-88.4364,0.0,19.1,2 
NERRS,ioos:station:NOAA.NERRS:gndbcwq:1,2017-02-22T15:45:00Z,30.3836,-88.4364,0.0,19.3,2 
NERRS,ioos:station:NOAA.NERRS:gndbcwq:1,2017-02-22T16:45:00Z,30.3836,-88.4364,0.0,19.4,2 
NERRS,ioos:station:NOAA.NERRS:gndbcwq:1,2017-02-22T17:45:00Z,30.3836,-88.4364,0.0,19.7,2 
NERRS,ioos:station:NOAA.NERRS:gndbcwq:1,2017-02-22T18:45:00Z,30.3836,-88.4364,0.0,20.4,2 
NERRS,ioos:station:NOAA.NERRS:gndbcwq:1,2017-02-22T19:45:00Z,30.3836,-88.4364,0.0,20.2,2 
NERRS,ioos:station:NOAA.NERRS:gndbcwq:1,2017-02-22T20:45:00Z,30.3836,-88.4364,0.0,20.6,2 
NERRS,ioos:station:NOAA.NERRS:gndbcwq:1,2017-02-22T21:45:00Z,30.3836,-88.4364,0.0,20.5,2 
NERRS,ioos:station:NOAA.NERRS:gndbcwq:1,2017-02-22T22:45:00Z,30.3836,-88.4364,0.0,20.7,2 
NERRS,ioos:station:NOAA.NERRS:gndbcwq:1,2017-02-23T13:45:00Z,30.3836,-88.4364,0.0,18.8,2 
NERRS,ioos:station:NOAA.NERRS:gndbcwq:1,2017-02-23T14:45:00Z,30.3836,-88.4364,0.0,18.6,2 
NERRS,ioos:station:NOAA.NERRS:gndbcwq:1,2017-02-23T15:45:00Z,30.3836,-88.4364,0.0,19.1,2 
NERRS,ioos:station:NOAA.NERRS:gndbcwq:1,2017-02-23T16:45:00Z,30.3836,-88.4364,0.0,19.5,2 
NERRS,ioos:station:NOAA.NERRS:gndbcwq:1,2017-02-23T17:45:00Z,30.3836,-88.4364,0.0,19.7,2 
NERRS,ioos:station:NOAA.NERRS:gndbcwq:1,2017-02-23T18:45:00Z,30.3836,-88.4364,0.0,21.8,2 
NERRS,ioos:station:NOAA.NERRS:gndbcwq:1,2017-02-23T19:45:00Z,30.3836,-88.4364,0.0,21.4,2 
NERRS,ioos:station:NOAA.NERRS:gndbcwq:1,2017-02-23T20:45:00Z,30.3836,-88.4364,0.0,22.0,2 
NERRS,ioos:station:NOAA.NERRS:gndbcwq:1,2017-02-23T21:45:00Z,30.3836,-88.4364,0.0,21.4,2 
NERRS,ioos:station:NOAA.NERRS:gndbcwq:1,2017-02-23T22:30:00Z,30.3836,-88.4364,0.0,21.6,2 
NERRS,ioos:station:NOAA.NERRS:gndbcwq:1,2017-02-24T14:45:00Z,30.3836,-88.4364,0.0,19.6,2 
NERRS,ioos:station:NOAA.NERRS:gndbcwq:1,2017-02-24T15:45:00Z,30.3836,-88.4364,0.0,20.1,2 
NERRS,ioos:station:NOAA.NERRS:gndbcwq:1,2017-02-24T16:45:00Z,30.3836,-88.4364,0.0,20.2,2 
NERRS,ioos:station:NOAA.NERRS:gndbcwq:1,2017-02-24T17:45:00Z,30.3836,-88.4364,0.0,20.4,2 
NERRS,ioos:station:NOAA.NERRS:gndbcwq:1,2017-02-24T18:45:00Z,30.3836,-88.4364,0.0,20.9,2 
NERRS,ioos:station:NOAA.NERRS:gndbcwq:1,2017-02-24T19:45:00Z,30.3836,-88.4364,0.0,21.4,2 
NERRS,ioos:station:NOAA.NERRS:gndbcwq:1,2017-02-24T20:45:00Z,30.3836,-88.4364,0.0,22.2,2 
NERRS,ioos:station:NOAA.NERRS:gndbcwq:1,2017-02-24T21:45:00Z,30.3836,-88.4364,0.0,23.0,2 
NERRS,ioos:station:NOAA.NERRS:gndbcwq:1,2017-02-24T22:45:00Z,30.3836,-88.4364,0.0,22.5,2 
NERRS,ioos:station:NOAA.NERRS:gndbcwq:1,2017-02-25T13:45:00Z,30.3836,-88.4364,0.0,19.9,2 
NERRS,ioos:station:NOAA.NERRS:gndbcwq:1,2017-02-25T14:45:00Z,30.3836,-88.4364,0.0,19.6,2 
NERRS,ioos:station:NOAA.NERRS:gndbcwq:1,2017-02-25T15:45:00Z,30.3836,-88.4364,0.0,19.9,2 
NERRS,ioos:station:NOAA.NERRS:gndbcwq:1,2017-02-25T16:45:00Z,30.3836,-88.4364,0.0,20.2,2 
NERRS,ioos:station:NOAA.NERRS:gndbcwq:1,2017-02-25T17:45:00Z,30.3836,-88.4364,0.0,20.6,2 
NERRS,ioos:station:NOAA.NERRS:gndbcwq:1,2017-02-25T18:45:00Z,30.3836,-88.4364,0.0,21.0,2 
NERRS,ioos:station:NOAA.NERRS:gndbcwq:1,2017-02-25T19:45:00Z,30.3836,-88.4364,0.0,21.5,2 
NERRS,ioos:station:NOAA.NERRS:gndbcwq:1,2017-02-25T20:45:00Z,30.3836,-88.4364,0.0,22.2,2 
NERRS,ioos:station:NOAA.NERRS:gndbcwq:1,2017-02-25T21:30:00Z,30.3836,-88.4364,0.0,22.4,2 
NERRS,ioos:station:NOAA.NERRS:gndbcwq:1,2017-02-26T14:45:00Z,30.3836,-88.4364,0.0,20.6,2 
NERRS,ioos:station:NOAA.NERRS:gndbcwq:1,2017-02-26T15:45:00Z,30.3836,-88.4364,0.0,20.2,2 
NERRS,ioos:station:NOAA.NERRS:gndbcwq:1,2017-02-26T16:45:00Z,30.3836,-88.4364,0.0,20.5,2 
NERRS,ioos:station:NOAA.NERRS:gndbcwq:1,2017-02-26T17:45:00Z,30.3836,-88.4364,0.0,19.9,2 
NERRS,ioos:station:NOAA.NERRS:gndbcwq:1,2017-02-26T18:45:00Z,30.3836,-88.4364,0.0,19.3,2 
NERRS,ioos:station:NOAA.NERRS:gndbcwq:1,2017-02-26T19:45:00Z,30.3836,-88.4364,0.0,19.6,2 
NERRS,ioos:station:NOAA.NERRS:gndbcwq:1,2017-02-26T20:45:00Z,30.3836,-88.4364,0.0,19.7,2 
NERRS,ioos:station:NOAA.NERRS:gndbcwq:1,2017-02-26T21:30:00Z,30.3836,-88.4364,0.0,20.3,2 
NERRS,ioos:station:NOAA.NERRS:gndbcwq:1,2017-02-27T15:45:00Z,30.3836,-88.4364,0.0,18.4,2 
NERRS,ioos:station:NOAA.NERRS:gndbcwq:1,2017-02-27T16:45:00Z,30.3836,-88.4364,0.0,18.7,2 
NERRS,ioos:station:NOAA.NERRS:gndbcwq:1,2017-02-27T17:45:00Z,30.3836,-88.4364,0.0,19.8,2 
NERRS,ioos:station:NOAA.NERRS:gndbcwq:1,2017-02-27T18:45:00Z,30.3836,-88.4364,0.0,19.9,2 
NERRS,ioos:station:NOAA.NERRS:gndbcwq:1,2017-02-27T19:45:00Z,30.3836,-88.4364,0.0,20.7,2 
NERRS,ioos:station:NOAA.NERRS:gndbcwq:1,2017-02-27T20:45:00Z,30.3836,-88.4364,0.0,21.6,2 
NERRS,ioos:station:NOAA.NERRS:gndbcwq:1,2017-02-27T21:15:00Z,30.3836,-88.4364,0.0,21.3,2 
 
DISCLAIMER: The Gulf of Mexico Coastal and Ocean Observing (GCOOS) Data Portal aggregates data from the regional data providers for the convenience of all data users. Data published on this website should not be used for navigation or certain other uses as we cannot guarantee data accuracy or availability. The data and delivery services are provided 'as is' without warranty of any kind. Data Source: Gulf of Mexico Coastal Ocean Observing System Data Portal (http://data.gcoos.org/) 
